Find Starlink 34868

NORAD ID: 65648 Int'l Des: 2025-210 Owner: SPXS Country: US Constellation: starlink operational
LEOCIRCULAR

当前视图

正在加载3D地球...

关于 Starlink 34868

正在加载描述...

即将过境

Passes for default location (London). Set your location on the main map for personalized predictions.

高度历史

Loading altitude history...

两行轨道根数

1 65648U 25210AC 26150.78181186 .00028032 00000-0 83765-3 0 9990
2 65648 53.1607 284.7797 0001167 54.5901 305.5210 15.34401592 40314
Epoch: May 30, 2026 • Age: 17 hours

当前状态

高度 481.2 km
速度 7.62 km/s
星下点 -51.46°S, 109.15°E
发射日期 Sep 18, 2025
运行时间 0.6 years
类型 internet

技术详情

分类 Payload
质量 575.00 kg
干质量 530.00 kg
总质量 575.00 kg
长度 0.30 m
直径 4.10 m
跨度 29.00 m
形状 Box + pan
制造商 SPXS
平台类型 Starlink V2MO
阶段状态 In Orbit
所有者/国家 SPXS/US

Most Searched